DLH9LV EDDF-EDDM

Flight info

Callsign DLH9LV
Flight time N/A
Altitude 23000
Route CINDY8S/18 CINDY Z74 HAREM T104 ROKIL ROKIL1A
Aircraft A319/M-SADE2E3FGIJ1LORWXYZ/HB1

Departure

Time N/A
Airport Frankfurt Main Airport (EDDF)

Arrival

Time 2026-05-04 17:00
Airport Munich Airport (EDDM)
Time Latitude Longitude Altitude Speed Heading
2026-05-04 16:29 49.82770 8.91116 17031 ft 360 kts 123°
2026-05-04 16:30 49.79016 9.01465 19129 ft 374 kts 123°
2026-05-04 16:31 49.76501 9.08607 20501 ft 384 kts 117°
2026-05-04 16:31 49.73627 9.20311 22502 ft 390 kts 127°
2026-05-04 16:32 49.69299 9.28284 22990 ft 375 kts 135°
2026-05-04 16:33 49.65994 9.34119 22989 ft 353 kts 135°
2026-05-04 16:33 49.62766 9.39796 22992 ft 352 kts 135°
2026-05-04 16:34 49.59543 9.45469 22992 ft 352 kts 135°
2026-05-04 16:34 49.57931 9.48307 22989 ft 352 kts 135°
2026-05-04 16:35 49.53084 9.56815 22996 ft 352 kts 135°
2026-05-04 16:35 49.48252 9.65267 22981 ft 352 kts 135°
2026-05-04 16:36 49.46631 9.68091 22981 ft 352 kts 135°
2026-05-04 16:36 49.43390 9.73724 22981 ft 351 kts 135°
2026-05-04 16:37 49.40150 9.79342 22972 ft 351 kts 135°
2026-05-04 16:37 49.38534 9.82150 22977 ft 351 kts 135°
2026-05-04 16:37 49.35297 9.87753 22976 ft 351 kts 135°
2026-05-04 16:38 49.32058 9.93340 22979 ft 351 kts 135°
2026-05-04 16:39 49.27190 10.01704 22981 ft 350 kts 135°
2026-05-04 16:39 49.23946 10.07270 22987 ft 350 kts 135°
2026-05-04 16:40 49.20709 10.12830 22986 ft 350 kts 135°
2026-05-04 16:40 49.17465 10.18376 22995 ft 350 kts 135°
2026-05-04 16:41 49.14221 10.23916 22997 ft 350 kts 135°
2026-05-04 16:41 49.09246 10.32020 22998 ft 348 kts 137°
2026-05-04 16:42 49.04199 10.40050 22999 ft 348 kts 137°
2026-05-04 16:43 49.00886 10.45344 22441 ft 347 kts 137°
2026-05-04 16:43 48.97551 10.50673 21498 ft 343 kts 137°
2026-05-04 16:43 48.95917 10.53277 20742 ft 350 kts 137°
2026-05-04 16:44 48.89081 10.64149 18071 ft 352 kts 137°
2026-05-04 16:45 48.85740 10.69458 16957 ft 341 kts 137°
2026-05-04 16:46 48.80894 10.76756 15856 ft 312 kts 144°
2026-05-04 16:46 48.77594 10.80903 15175 ft 305 kts 144°
2026-05-04 16:47 48.74343 10.84948 14538 ft 300 kts 144°
2026-05-04 16:47 48.71134 10.88917 13902 ft 296 kts 144°
2026-05-04 16:48 48.66386 10.94758 12788 ft 291 kts 144°
2026-05-04 16:48 48.64815 10.96687 12410 ft 290 kts 144°
2026-05-04 16:49 48.61690 11.00514 11665 ft 288 kts 144°
2026-05-04 16:49 48.58582 11.04299 10934 ft 286 kts 144°
2026-05-04 16:50 48.55491 11.08039 10186 ft 284 kts 144°
2026-05-04 16:50 48.52422 11.11744 9401 ft 281 kts 144°
2026-05-04 16:51 48.49365 11.15390 8430 ft 279 kts 144°
2026-05-04 16:51 48.47836 11.17184 7868 ft 278 kts 144°
2026-05-04 16:51 48.44763 11.20739 7040 ft 275 kts 144°
2026-05-04 16:52 48.41850 11.24077 6793 ft 252 kts 144°
2026-05-04 16:52 48.40469 11.25655 6542 ft 248 kts 144°
2026-05-04 16:53 48.38205 11.29459 5827 ft 249 kts 116°
2026-05-04 16:53 48.36080 11.36471 5087 ft 236 kts 114°
2026-05-04 16:54 48.35417 11.38668 5002 ft 225 kts 114°
2026-05-04 16:55 48.33851 11.46134 5019 ft 198 kts 82°
2026-05-04 16:55 48.34165 11.49972 4849 ft 179 kts 81°
2026-05-04 16:56 48.34463 11.53694 4429 ft 181 kts 81°
2026-05-04 16:56 48.34908 11.59306 3720 ft 171 kts 81°
2026-05-04 16:57 48.35046 11.61048 3512 ft 164 kts 81°
2026-05-04 16:57 48.35295 11.64209 3104 ft 144 kts 81°
2026-05-04 16:58 48.35640 11.68629 2553 ft 141 kts 81°
2026-05-04 16:58 48.35747 11.70087 2408 ft 140 kts 81°
2026-05-04 16:59 48.35967 11.72965 2038 ft 138 kts 80°
2026-05-04 17:00 48.36398 11.78311 1485 ft 86 kts 84°
2026-05-04 17:00 48.36426 11.79344 1483 ft 13 kts 113°
2026-05-04 17:01 48.36361 11.79575 1481 ft 10 kts 112°
2026-05-04 17:01 48.36322 11.79714 1473 ft 3 kts 114°
2026-05-04 17:02 48.36316 11.79736 1481 ft 2 kts 114°
2026-05-04 17:02 48.36312 11.79749 1483 ft 2 kts 114°
2026-05-04 17:03 48.36297 11.79794 1483 ft 7 kts 120°
2026-05-04 17:03 48.36256 11.79832 1482 ft 8 kts 169°
2026-05-04 17:03 48.36196 11.79842 1485 ft 0 kts 175°